Location: Sabana Grande
(18.0777°N, 66.9605°W)
Time: 19:18:50
(UTC-04:00)

ACS3 Solar Sail - Pass Details

Date: 26 September 2024
Orbit: 959 x 1034 km, 97.5° (Epoch: 14 October)

Event Time Altitude Azimuth Distance (km) Brightness Sun altitude
Rises 10:03:52 0° 351° (N) 3,717 4.6 51.4°
Reaches altitude 10° 10:06:48 10° 339° (NNW) 2,754 4.0 52.0°
Drops below altitude 10° 10:16:29 10° 234° (SW) 2,713 4.1 54.0°
Enters shadow 10:56:41 -73° 153° (SSE) 13,207 7.2 61.8°
Exits shadow 11:20:17 -56° 36° (NE) 11,736 6.8 65.6°
